Quillayute, WA

9:43 AM PDT on March 27, 2017 (GMT -0700)
Quillayute

Weather History for KUIL - December, 2014

Change the Weather History Date:

Sunday, December 14, 2014

  Actual Average Record
Temperature  
Mean Temperature 41 °F 40 °F  
Max Temperature 49 °F 46 °F 55 °F (2002)
Min Temperature 32 °F 34 °F 22 °F (1972)
Degree Days  
Heating Degree Days 24 25  
Month to date heating degree days 262 342  
Since 1 July heating degree days 1496 2056  
Cooling Degree Days 0 0  
Month to date cooling degree days 0 0  
Year to date cooling degree days 25 19  
Moisture  
Dew Point 36 °F    
Average Humidity 86    
Maximum Humidity 100    
Minimum Humidity 71    
Precipitation  
Precipitation 0.00 in 0.40 in 2.99 in (1984)
Month to date precipitation 8.98 6.14  
Year to date precipitation 99.92 92.69  
Sea Level Pressure  
Sea Level Pressure 30.01 in    
Wind  
Wind Speed 6 mph (ENE)    
Max Wind Speed 17 mph    
Max Gust Speed 22 mph    
Visibility 8 miles    
Events      
T = Trace of Precipitation, MM = Missing Value Source: NWS Daily Summary

Daily Weather History Graph

Daily Weather History Graph

Search for Another Location

Airport or City:

Trip Planner

Search our weather history database for the weather conditions in past years. The results will help you decide how hot, cold, wet, or windy it might be!

Date:

Astronomy

Dec. 14, 2014 Rise Set
Actual Time 8:00 AM PST 4:25 PM PST
Civil Twilight 7:24 AM PST 5:01 PM PST
Nautical Twilight 6:44 AM PST 5:41 PM PST
Astronomical Twilight 6:06 AM PST 6:19 PM PST
Moon No Moon Rise 12:26 PM PST (12/14)
Length of Visible Light 9h 37m
Length of Day
8h 25m
Waning Gibbous, 47% of the Moon is Illuminated
Dec 14
Waning Gibbous
Dec 21
New
Dec 28
First Quarter
Jan 4
Full
Jan 13
Last Quarter

Hourly Weather History & Observations

Time (PST) Temp. Windchill Dew Point Humidity Pressure Visibility Wind Dir Wind Speed Gust Speed Precip Events Conditions
12:53 AM 39.0 °F 34.0 °F 37.0 °F 93% 30.16 in 9.0 mi East 6.9 mph - N/A   Clear
1:53 AM 39.0 °F 34.8 °F 37.0 °F 93% 30.16 in 9.0 mi ENE 5.8 mph - N/A   Clear
2:53 AM 35.1 °F - 34.0 °F 96% 30.15 in 5.0 mi Calm Calm - N/A   Clear
3:53 AM 34.0 °F 29.8 °F 34.0 °F 100% 30.12 in 8.0 mi East 4.6 mph - N/A   Clear
4:53 AM 33.1 °F - 33.1 °F 100% 30.11 in 7.0 mi Calm Calm - N/A   Clear
5:53 AM 37.0 °F 33.3 °F 36.0 °F 96% 30.09 in 8.0 mi East 4.6 mph - N/A   Clear
6:53 AM 37.0 °F 32.4 °F 35.1 °F 93% 30.08 in 9.0 mi East 5.8 mph - N/A   Clear
7:53 AM 36.0 °F 32.1 °F 35.1 °F 97% 30.07 in 7.0 mi ENE 4.6 mph - N/A   Clear
8:53 AM 37.0 °F - 36.0 °F 96% 30.06 in 7.0 mi Calm Calm - N/A   Clear
9:53 AM 41.0 °F - 37.9 °F 89% 30.06 in 7.0 mi Calm Calm - N/A   Clear
10:53 AM 45.0 °F 39.3 °F 39.0 °F 80% 30.05 in 7.0 mi ENE 11.5 mph - N/A   Clear
11:53 AM 46.9 °F - 39.9 °F 77% 30.02 in 8.0 mi ENE 11.5 mph - N/A   Clear
12:53 PM 48.0 °F - 39.0 °F 71% 30.00 in 8.0 mi ENE 11.5 mph 17.3 mph N/A   Clear
1:53 PM 46.9 °F - 37.9 °F 71% 29.97 in 8.0 mi ENE 13.8 mph - N/A   Clear
2:53 PM 46.0 °F 41.9 °F 37.0 °F 71% 29.96 in 8.0 mi NNE 8.1 mph - N/A   Clear
3:53 PM 45.0 °F 40.1 °F 37.0 °F 74% 29.95 in 8.0 mi NE 9.2 mph - N/A   Clear
4:53 PM 42.1 °F 37.7 °F 37.0 °F 82% 29.94 in 9.0 mi NE 6.9 mph - N/A   Clear
5:53 PM 39.9 °F 35.1 °F 36.0 °F 86% 29.92 in 9.0 mi ENE 6.9 mph - N/A   Clear
6:53 PM 39.9 °F 35.1 °F 36.0 °F 86% 29.91 in 9.0 mi ENE 6.9 mph - N/A   Clear
7:53 PM 37.0 °F 34.5 °F 35.1 °F 93% 29.91 in 9.0 mi SSE 3.5 mph - N/A   Clear
8:53 PM 35.1 °F 31.0 °F 34.0 °F 96% 29.91 in 9.0 mi East 4.6 mph - N/A   Clear
9:53 PM 35.1 °F 32.2 °F 34.0 °F 96% 29.89 in 9.0 mi East 3.5 mph - N/A   Clear
10:53 PM 34.0 °F 29.8 °F 32.0 °F 92% 29.89 in 9.0 mi East 4.6 mph - N/A   Clear
11:53 PM 32.0 °F 28.7 °F 30.9 °F 96% 29.89 in 9.0 mi SE 3.5 mph - N/A   Clear